Regional Weather Roundup
Issued by NWS Little Rock, AR

Home | Current Version | Previous Version | Text Only | Print | Product List | Glossary On
Versions: 1 2 3 4 5 6 7 8 9 10 11 12 13 14 15 16 17 18 19 20 21 22 23 24 25 26 27 28 29 30 31 32 33 34 35 36 37 38 39 40 41 42 43 44 45 46 47 48 49 50
000
ASUS44 KLZK 061405
RWRLZK

WEATHER ROUNDUP FOR ARKANSAS
NATIONAL WEATHER SERVICE LITTLE ROCK AR
900 AM CDT WED MAY 06 2015

NOTE: "FAIR" INDICATES FEW OR NO CLOUDS BELOW 12,000 FEET WITH NO
SIGNIFICANT WEATHER AND/OR OBSTRUCTIONS TO VISIBILITY.

ARZ001-003-010-029-061500-
NORTHWEST ARKANSAS

CITY           SKY/WX    TMP DP  RH WIND       PRES   REMARKS
FAYETTEVILLE   LGT RAIN  64  62  93 S14G35    30.09S
FORT SMITH     CLOUDY    67  60  78 E8        30.06S
HARRISON       CLOUDY    69  60  73 SW7       30.11R
BENTONVILLE    CLOUDY    61  55  82 SE5       30.09F
ROGERS         LGT RAIN  60  58  92 SE3       30.10F
SILOAM SPGS    CLOUDY    63  55  77 SE9       30.07F
HIGHFILL       LGT RAIN  61  59  93 SE6       30.08F
SPRINGDALE     PTSUNNY   63  63 100 SW3       30.11S
$$

ARZ004-005-016-061500-
NORTH CENTRAL ARKANSAS

CITY           SKY/WX    TMP DP  RH WIND       PRES   REMARKS
BATESVILLE     MOSUNNY   72  55  56 S5        30.12S
FLIPPIN        PTSUNNY   70  57  64 SE5       30.10R
MTN HOME       PTSUNNY   69  58  67 S7        30.11R
$$

ARZ040-041-061500-
WEST CENTRAL ARKANSAS

CITY           SKY/WX    TMP DP  RH WIND       PRES   REMARKS
MENA           CLOUDY    72  61  68 SE6       30.07F
MOUNT IDA      CLOUDY    68  61  78 SE3       30.07S
$$

ARZ009-017-025-026-028-061500-
NORTHEAST ARKANSAS

CITY           SKY/WX    TMP DP  RH WIND       PRES   REMARKS
CORNING          N/A     75  57  53 S13       30.15S
JONESBORO      SUNNY     71  59  65 S9        30.15R
NEWPORT        SUNNY     74  58  57 S12       30.15R
WALNUT RIDGE   SUNNY     73  55  53 S13       30.14R
BLYTHEVILLE    SUNNY     74  58  57 S12       30.17S
NW BLYTHEVILLE SUNNY     75  57  53 S10       30.16
$$

ARZ022-023-033-042-044-061500-
CENTRAL ARKANSAS

CITY           SKY/WX    TMP DP  RH WIND       PRES   REMARKS
LITTLE ROCK    MOSUNNY   72  57  59 S10       30.11F
N LITTLE ROCK  MOSUNNY   72  60  64 S6        30.11F
JACKSONVILLE   SUNNY     74  58  57 VRB6      30.11S
SEARCY         MOSUNNY   72  60  66 VRB3      30.14R
HOT SPRINGS    PTSUNNY   70  58  65 S5        30.10F
RUSSELLVILLE   PTSUNNY   71  60  68 SE5       30.09F
CLINTON        FAIR      68  61  77 CALM      30.13S
$$

ARZ036-061500-
EAST ARKANSAS

CITY           SKY/WX    TMP DP  RH WIND       PRES   REMARKS
WEST MEMPHIS   SUNNY     73  60  63 S6        30.15S
$$

ARZ050-053-066-070-073-061500-
SOUTHWEST ARKANSAS

CITY           SKY/WX    TMP DP  RH WIND       PRES   REMARKS
ARKADELPHIA    FAIR      71  61  70 VRB3      30.10F
CAMDEN         MOSUNNY   70  57  64 CALM      30.10S
TEXARKANA      MOSUNNY   71  64  78 SE7       30.07S
EL DORADO      PTSUNNY   71  61  70 S8        30.10S
DE QUEEN       PTSUNNY   72  64  76 SE7       30.04S
$$

ARZ056-057-069-061500-
SOUTHEAST ARKANSAS

CITY           SKY/WX    TMP DP  RH WIND       PRES   REMARKS
PINE BLUFF     SUNNY     72  60  66 SE9       30.13R
STUTTGART      SUNNY     72  57  60 SE9       30.14R
MONTICELLO     SUNNY     71  60  68 S6        30.12S

$$





USA.gov is the U.S. government's official web portal to all federal, state and local government web resources and services.